STARLINK-30519, 57985

Orbit data source: Space-Track

STARLINK-30519, 57985 is a payload satellite owned by SpaceX/Seattle (US) in LEO that was launched on Sat, 30 Sep 2023 UTC via an FALCON 9 launch vehicle from the Air Force Eastern Test Range (AFETR). Payload-class satellites include a variety of spacecraft equipped with specific instruments for various scientific and technological missions. These include communications satellites like Starlink; space stations such as the ISS; scientific satellites like the Hubble; Earth observation satellites from companies like Planet Labs, Umbra, and HawkEye 360; GPS; miniature CubeSats for education and research; and military/defense satellites.

Loading next visibility...
Identifier
57985, 2023-151X
Orbit
LEO
Country
Flag of USUS
Related business
Manufacturer
SpaceX/Seattle
Mission
Operational Commercial Communications
Bus & Motor
STARLINK V2M, Unknown motor
Mass
730 kg wet, ~700 kg dry
Launch date (UTC)
2023-09-30 (3 years ago)
Launch vehicle
FALCON 9
Launch site
Air Force Eastern Test Range (AFETR)
Object type
Payload
Rocket body
Debris
Shape & HBR
Box + 2 Pan, 17.7 m
Radar Cross Section
33.884 m², Large (>1 m²)

Expand to show TLE details & history
Last TLE update: 16 hours ago

TLE from 16 hours ago
0 STARLINK-30519
1 57985U 23151X   26236.74879788  .00001153  00000-0  51414-4 0  9992
2 57985  43.0039 121.7600 0001709 270.3103  89.7553 15.27583132161232
Epoch: 2026-08-24T17:58Z
TLE epoch observation values (Epoch: 2026-08-24T17:58:16.136Z)
Latitude
-0.00002°
Longitude
-120.8333°
Altitude
482.811 km
Speed
7.626 km/s
True Right ascension
08h 07m 02s
True Declination
0° 00' 00"
Sunlit
Object was in daylight at epoch
Visualization orbit readout
Latitude
Unknown
Longitude
Unknown
Altitude
Unknown
Speed
Unknown
Apparent Right ascension
Unknown
Apparent Declination
Unknown
Sunlit
N/A
Visualization observer readout
Local Sidereal Time
00:46:38
Azimuth
Unknown
Elevation
Unknown
Doppler factor
Unknown
Orbital elements
Apogee altitude
486.157 km
Perigee altitude
483.811 km
Semi-major axis
6,863.121 km
Eccentricity
0.00017
Inclination
43.0039°
RAAN
121.76°
Arg. of periapsis
270.3103°
True anomaly
89.77488°
Mean anomaly
89.7553°
Eccentric anomaly
89.76509°
Mean motion
3.81734 °/min
Orbital period
94.31 mins
BSTAR
0.000051414
Loading maneuver chart data...
Computing Atmospheric mass density...
Loading historical data...
Loading historical data...
Loading historical data...
Loading historical data...
Loading historical data...
Loading historical data...
Loading historical data...

Documentation

Showing up to 5 results
|